Airfield :
LOGIN :

Register | Disclaimer

   EN    FR    IT 

 










Legend :    VFR   Marginal VFR   IFR   Intensive IFR   Very Intensive IFR
Visi :
Ceiling :
>= 8 km
>= 3000ft
5 to 8 km
1000 to 3000 ft
1500m to 5 km
500 to 1000 ft
800 to 1500m
200 to 500 ft
< 800m
< 200 ft
Symbols :   Thunderstorms  Fog  Heavy snow  Heavy precipitations  Wind > 20 kt
SIGMETs :     Misc.  Thunderstorms  Icing  Turbulence  Mountain Waves  Volcanic Ashes







- Airport Elevation : 266 ft
- IATA code : NCL
- Download approach charts


EGNT - Newcastle

CURRENT METAR :
  • 191820Z 27006KT CAVOK 11/07 Q1018

EXPIRED METARs :
  • 191750Z 26006KT 9999 FEW025 12/07 Q1018
  • 191720Z 27009KT 9999 FEW025 14/08 Q1018
  • 191650Z 27009KT 9999 FEW025 15/08 Q1018
  • 191620Z 27010KT 9999 FEW025 15/07 Q1018
  • 191550Z 27011KT 9999 FEW030 15/08 Q1018

TAF TAF EGNT
Valid from the 19 at 18:00 until the 20 at 18:00 UTC


191701Z 1918/2018 24005KT 9999 FEW035
ATIS : +44 191 214 3400
No reported NOTAMs for that airfield.



MET'MAP, your aeronautical weather chart ! - Copyright ORBIFLY December 2007 - Disclaimer

ORBIFLY MET'MAP TEAM :

Programming & Development : Alexandra Zaïnal
Concept & Development : Baudouin d'Aumeries
Co-Development & Prog : Marc-Olivier Méhu
Technical & hardware support : Manuel Goepfert

Contact : metmap@orbifly.com




SOURCES & CREDITS :

   NOAA